Regional Weather Roundup
Issued by NWS Green Bay, WI

Home | Current Version | Previous Version | Graphics & Text | Print | Product List | Glossary Off
Versions: 1 2 3 4 5 6 7 8 9 10 11 12 13 14 15 16 17 18 19 20 21 22 23 24 25 26 27 28 29 30 31 32 33 34 35 36 37 38 39 40 41 42 43 44 45 46 47 48 49 50

000
ASUS43 KGRB 281611
RWRGRB

NORTH-CENTRAL AND NORTHEAST WISCONSIN REGIONAL WEATHER ROUNDUP
NATIONAL WEATHER SERVICE GREEN BAY WI
1100 AM CDT SUN AUG 28 2016

WIZ005-009-010>012-018-019-281700-
NORTH CENTRAL WISCONSIN

CITY           SKY/WX    TMP DP  RH WIND       PRES   REMARKS
IRONWOOD       CLOUDY    66  60  81 CALM      30.21F
MANITOWISH WTR MOSUNNY   67  60  80 CALM      30.21F
ARBOR VITAE    CLOUDY    69  62  76 S3        30.23R
EAGLE RIVER    MOSUNNY   67  57  69 CALM      30.22S
LAND O LAKES   MOSUNNY   68  58  68 W3        30.24S
RHINELANDER    CLOUDY    68  61  78 VRB5      30.24R
PHILLIPS       CLOUDY    66  60  82 SE6       30.21F
ANTIGO         MOSUNNY   69  61  76 CALM      30.24S
TOMAHAWK       CLOUDY    68  59  73 CALM      30.23F
MERRILL        MOSUNNY   70  62  76 CALM      30.23S
$$

WIZ013-073-281700-
NORTHEAST WISCONSIN

CITY           SKY/WX    TMP DP  RH WIND       PRES   REMARKS
IRON MOUNTAIN  MOSUNNY   72  57  59 N5        30.20R
MARINETTE      MOSUNNY  N/A N/A N/A CALM      30.21
OCONTO         PTSUNNY   72  60  65 W3        30.21R
$$

WIZ017-030-035>037-045-281700-
CENTRAL WISCONSIN

CITY           SKY/WX    TMP DP  RH WIND       PRES   REMARKS
MEDFORD        PTSUNNY   67  64  88 CALM      30.22F
WAUSAU         SUNNY     70  60  70 S5        30.22R
MOSINEE        PTSUNNY   66  63  88 S6        30.25R
MARSHFIELD     CLOUDY    70  62  76 S3        30.23R
WISC RAPIDS    CLOUDY    71  64  78 S3        30.24R
STEVENS POINT  PTSUNNY   67  60  79 CALM      30.25R
WAUPACA        MOSUNNY   75  63  66 CALM      30.23S
SHAWANO        CLOUDY    73  62  68 NE5       30.22S
CLINTONVILLE   CLOUDY    72  61  68 S3        30.23R
WAUTOMA        CLOUDY    72  65  78 SE3       30.24R
$$

WIZ038-039-048-051-281700-
FOX VALLEY

CITY           SKY/WX    TMP DP  RH WIND       PRES   REMARKS
NWS GREEN BAY  CLOUDY    72  64  76 CALM      30.22S
APPLETON       PTSUNNY   70  61  73 CALM      30.22S
OSHKOSH        CLOUDY    73  63  70 VRB3      30.23R
FOND DU LAC    MOSUNNY   74  65  73 CALM      30.23F
$$

WIZ022-050-052-281700-
EAST CENTRAL WISCONSIN

CITY           SKY/WX    TMP DP  RH WIND       PRES   REMARKS
EPHRAIM        PTSUNNY   69  64  85 CALM      30.21R
WASHINGTON ISL NOT AVBL
STURGEON BAY   PTSUNNY   71  62  73 NW7       30.22R
MANITOWOC      MOSUNNY   74  63  68 NW6       30.23S
SHEBOYGAN      PTSUNNY   75  63  66 N3        30.23R
$$

LMZ563-521-522-541>543-281700-
LAKESHORE

STATION/POSITION TIME  TEMP    WIND        PRES    VSBY  WAVE
                       AIR SEA DIR/SP/G                  HT/PER
                 (UTC) (F)     (DEG/KT/KT) (MB)    (MI)  (FT/S)
SHEBOYGAN LKSHOR 1600   64     170/ 10/ 10 1023.1R
KEWAUNEE LKSHORE 1500   69     270/  2/  6 1022.6R
NORTHPORT PIER   1500   71     260/  3/ 12 1022.0R
N MID LAKE BUOY  1550   68 71  250/ 10/ 12 1022.0R         1/ 3
S GREEN BAY BUOY 1500   68 71  250/  6/  8 1022.2R
SISTER BAY LKSHO 1452   74     290/ 10/ 11   N/A
CHAMBERS ISLAND  1500   71     230/  3/  6 1022.0S
MENOMINEE LKSHOR 1500   71     280/  1/  5 1021.6R
$$




USA.gov is the U.S. government's official web portal to all federal, state and local government web resources and services.